Time,TemperatureF,DewpointF,PressureIn,WindDirection,WindDirectionDegrees,WindSpeedMPH,WindSpeedGustMPH,Humidity,HourlyPrecipIn,Conditions,Clouds,dailyrainin,SoftwareType,DateUTC
2013-01-02 00:03:00,40.0,38.0,30.19,North,355,11.0,17.0,91,0.00,,,1.59,,2013-01-02 05:03:00,
2013-01-02 00:12:00,40.0,38.0,30.19,North,355,11.0,17.0,91,0.00,,,1.59,,2013-01-02 05:12:00,
2013-01-02 00:22:00,40.0,38.0,30.18,North,360,10.0,15.0,91,0.00,,,1.59,,2013-01-02 05:22:00,
2013-01-02 00:33:00,40.0,38.0,30.18,North,351,9.0,13.0,91,0.00,,,1.59,,2013-01-02 05:33:00,
2013-01-02 00:42:00,40.0,38.0,30.18,North,351,9.0,13.0,91,0.00,,,1.59,,2013-01-02 05:42:00,
2013-01-02 00:52:00,40.0,38.0,30.18,North,355,7.0,10.0,92,0.00,,,1.51,,2013-01-02 05:52:00,
2013-01-02 01:02:00,40.0,38.0,30.18,NNW,346,8.0,11.0,92,0.00,,,1.51,,2013-01-02 06:02:00,
2013-01-02 01:12:00,40.0,38.0,30.18,NNW,346,8.0,11.0,92,0.00,,,1.51,,2013-01-02 06:12:00,
2013-01-02 01:22:00,40.0,38.0,30.18,North,9,7.0,10.0,92,0.00,,,1.51,,2013-01-02 06:22:00,
2013-01-02 01:32:00,40.0,38.0,30.17,NNW,347,8.0,10.0,92,0.00,,,1.51,,2013-01-02 06:32:00,
2013-01-02 01:42:00,40.0,38.0,30.17,NNW,347,8.0,10.0,92,0.00,,,1.51,,2013-01-02 06:42:00,
2013-01-02 01:52:00,40.0,38.0,30.18,North,355,8.0,10.0,92,0.00,,,1.28,,2013-01-02 06:52:00,
2013-01-02 02:02:00,40.0,38.0,30.17,NNW,342,9.0,12.0,92,0.00,,,1.28,,2013-01-02 07:02:00,
2013-01-02 02:12:00,40.0,38.0,30.17,NNW,342,9.0,12.0,92,0.00,,,1.28,,2013-01-02 07:12:00,
2013-01-02 02:22:00,40.0,38.0,30.17,North,355,10.0,13.0,91,0.00,,,1.28,,2013-01-02 07:22:00,
2013-01-02 02:32:00,40.0,37.0,30.18,North,5,8.0,15.0,90,0.00,,,1.28,,2013-01-02 07:32:00,
2013-01-02 02:42:00,40.0,37.0,30.18,North,5,8.0,15.0,90,0.00,,,1.28,,2013-01-02 07:42:00,
2013-01-02 02:52:00,40.0,37.0,30.18,North,351,9.0,14.0,89,0.00,,,1.09,,2013-01-02 07:52:00,
2013-01-02 03:02:00,40.0,37.0,30.18,North,351,9.0,14.0,89,0.00,,,1.09,,2013-01-02 08:02:00,
2013-01-02 03:11:00,40.0,37.0,30.18,North,351,9.0,14.0,89,0.00,,,1.09,,2013-01-02 08:11:00,
2013-01-02 03:22:00,39.0,36.0,30.18,North,5,7.0,11.0,89,0.00,,,1.09,,2013-01-02 08:22:00,
2013-01-02 03:32:00,39.0,36.0,30.18,North,5,7.0,12.0,90,0.00,,,1.09,,2013-01-02 08:32:00,
2013-01-02 03:42:00,39.0,36.0,30.18,North,5,7.0,12.0,90,0.00,,,1.09,,2013-01-02 08:42:00,
2013-01-02 03:52:00,39.0,36.0,30.19,NNW,337,8.0,11.0,90,0.00,,,0.80,,2013-01-02 08:52:00,
2013-01-02 04:02:00,39.0,36.0,30.18,NNW,346,6.0,10.0,90,0.00,,,0.80,,2013-01-02 09:02:00,
2013-01-02 04:12:00,39.0,36.0,30.18,NNW,346,6.0,10.0,90,0.00,,,0.80,,2013-01-02 09:12:00,
2013-01-02 04:22:00,39.0,36.0,30.19,NNW,348,7.0,12.0,90,0.00,,,0.80,,2013-01-02 09:22:00,
2013-01-02 04:32:00,39.0,36.0,30.18,North,360,10.0,14.0,89,0.00,,,0.80,,2013-01-02 09:32:00,
2013-01-02 04:43:00,39.0,36.0,30.18,North,360,10.0,14.0,89,0.00,,,0.80,,2013-01-02 09:43:00,
2013-01-02 04:52:00,38.0,35.0,30.19,NNW,347,9.0,14.0,90,0.00,,,0.57,,2013-01-02 09:52:00,
2013-01-02 05:02:00,38.0,35.0,30.18,NNW,345,11.0,14.0,90,0.00,,,0.57,,2013-01-02 10:02:00,
2013-01-02 05:12:00,38.0,35.0,30.18,NNW,345,11.0,14.0,90,0.00,,,0.57,,2013-01-02 10:12:00,
2013-01-02 05:22:00,38.0,35.0,30.18,North,355,9.0,14.0,90,0.00,,,0.57,,2013-01-02 10:22:00,
2013-01-02 05:32:00,38.0,35.0,30.20,NNW,341,10.0,14.0,89,0.00,,,0.57,,2013-01-02 10:32:00,
2013-01-02 05:42:00,38.0,35.0,30.20,NNW,341,10.0,14.0,89,0.00,,,0.57,,2013-01-02 10:42:00,
2013-01-02 05:52:00,38.0,35.0,30.19,North,360,10.0,15.0,89,0.00,,,0.47,,2013-01-02 10:52:00,
2013-01-02 06:02:00,38.0,35.0,30.19,North,351,10.0,14.0,90,0.00,,,0.47,,2013-01-02 11:02:00,
2013-01-02 06:12:00,38.0,35.0,30.19,North,351,10.0,14.0,90,0.00,,,0.47,,2013-01-02 11:12:00,
2013-01-02 06:22:00,38.0,35.0,30.19,North,360,10.0,14.0,90,0.00,,,0.47,,2013-01-02 11:22:00,
2013-01-02 06:32:00,37.0,34.0,30.21,NNW,336,10.0,14.0,90,0.00,,,0.47,,2013-01-02 11:32:00,
2013-01-02 06:42:00,37.0,34.0,30.21,NNW,336,10.0,14.0,90,0.00,,,0.47,,2013-01-02 11:42:00,
2013-01-02 06:52:00,37.0,34.0,30.21,North,355,11.0,17.0,90,0.00,,,0.43,,2013-01-02 11:52:00,
2013-01-02 07:02:00,37.0,34.0,30.20,North,355,11.0,16.0,89,0.00,,,0.43,,2013-01-02 12:02:00,
2013-01-02 07:12:00,37.0,34.0,30.20,North,355,11.0,16.0,89,0.00,,,0.43,,2013-01-02 12:12:00,
2013-01-02 07:22:00,37.0,34.0,30.22,North,11,9.0,15.0,89,0.00,,,0.43,,2013-01-02 12:22:00,
2013-01-02 07:33:00,37.0,34.0,30.22,NNW,348,9.0,13.0,90,0.00,,,0.43,,2013-01-02 12:33:00,
2013-01-02 07:42:00,37.0,34.0,30.22,NNW,348,9.0,13.0,90,0.00,,,0.43,,2013-01-02 12:42:00,
2013-01-02 07:53:00,37.0,34.0,30.22,NNE,20,7.0,13.0,90,0.00,,,0.35,,2013-01-02 12:53:00,
2013-01-02 08:02:00,37.0,34.0,30.21,NNE,14,9.0,14.0,89,0.00,,,0.35,,2013-01-02 13:02:00,
2013-01-02 08:12:00,37.0,34.0,30.21,NNE,14,9.0,14.0,89,0.00,,,0.35,,2013-01-02 13:12:00,
2013-01-02 08:22:00,37.0,34.0,30.22,North,9,9.0,14.0,89,0.00,,,0.35,,2013-01-02 13:22:00,
2013-01-02 08:32:00,37.0,34.0,30.22,NNE,19,8.0,14.0,89,0.00,,,0.35,,2013-01-02 13:32:00,
2013-01-02 08:42:00,37.0,34.0,30.22,NNE,19,8.0,14.0,89,0.00,,,0.35,,2013-01-02 13:42:00,
2013-01-02 08:52:00,37.0,34.0,30.23,NNE,16,8.0,13.0,89,0.00,,,0.25,,2013-01-02 13:52:00,
2013-01-02 09:02:00,37.0,34.0,30.23,North,360,7.0,10.0,89,0.00,,,0.25,,2013-01-02 14:02:00,
2013-01-02 09:12:00,37.0,34.0,30.23,North,360,7.0,10.0,89,0.00,,,0.25,,2013-01-02 14:12:00,
2013-01-02 09:22:00,37.0,34.0,30.24,North,5,7.0,13.0,89,0.00,,,0.25,,2013-01-02 14:22:00,
2013-01-02 09:33:00,37.0,34.0,30.24,NNW,347,10.0,14.0,89,0.00,,,0.25,,2013-01-02 14:33:00,
2013-01-02 09:42:00,37.0,34.0,30.24,NNW,347,10.0,14.0,89,0.00,,,0.25,,2013-01-02 14:42:00,
2013-01-02 09:53:00,37.0,34.0,30.24,NE,39,7.0,11.0,89,0.00,,,0.16,,2013-01-02 14:53:00,
2013-01-02 10:03:00,37.0,33.0,30.25,NNE,22,9.0,15.0,86,0.00,,,0.16,,2013-01-02 15:03:00,
2013-01-02 10:12:00,37.0,33.0,30.25,NNE,22,9.0,15.0,86,0.00,,,0.16,,2013-01-02 15:12:00,
2013-01-02 10:22:00,37.0,33.0,30.24,NNE,18,10.0,14.0,86,0.00,,,0.16,,2013-01-02 15:22:00,
2013-01-02 10:33:00,37.0,33.0,30.26,North,355,9.0,15.0,84,0.00,,,0.16,,2013-01-02 15:33:00,
2013-01-02 10:43:00,37.0,33.0,30.26,North,355,9.0,15.0,84,0.00,,,0.16,,2013-01-02 15:43:00,
2013-01-02 10:52:00,37.0,32.0,30.24,NNE,16,12.0,16.0,82,0.00,,,0.07,,2013-01-02 15:52:00,
2013-01-02 11:03:00,37.0,33.0,30.26,North,5,8.0,15.0,84,0.00,,,0.07,,2013-01-02 16:03:00,
2013-01-02 11:12:00,37.0,33.0,30.26,North,5,8.0,15.0,84,0.00,,,0.07,,2013-01-02 16:12:00,
2013-01-02 11:22:00,37.0,33.0,30.26,NNE,18,9.0,13.0,84,0.00,,,0.07,,2013-01-02 16:22:00,
2013-01-02 11:33:00,37.0,33.0,30.26,NNE,26,9.0,12.0,84,0.00,,,0.07,,2013-01-02 16:33:00,
2013-01-02 11:43:00,37.0,33.0,30.26,NNE,26,9.0,12.0,84,0.00,,,0.07,,2013-01-02 16:43:00,
2013-01-02 11:53:00,37.0,32.0,30.27,North,9,9.0,14.0,82,0.00,,,0.02,,2013-01-02 16:53:00,
2013-01-02 12:03:00,37.0,32.0,30.27,North,9,9.0,14.0,82,0.00,,,0.02,,2013-01-02 17:03:00,
2013-01-02 12:12:00,37.0,32.0,30.27,North,9,9.0,14.0,82,0.00,,,0.02,,2013-01-02 17:12:00,
2013-01-02 12:23:00,36.0,31.0,30.25,North,5,9.0,12.0,81,0.00,,,0.02,,2013-01-02 17:23:00,
2013-01-02 12:33:00,36.0,30.0,30.26,NNE,28,8.0,11.0,80,0.00,,,0.02,,2013-01-02 17:33:00,
2013-01-02 12:43:00,36.0,30.0,30.26,NNE,28,8.0,11.0,80,0.00,,,0.02,,2013-01-02 17:43:00,
2013-01-02 12:53:00,36.0,31.0,30.24,NNE,30,7.0,10.0,82,0.00,,,0.01,,2013-01-02 17:53:00,
2013-01-02 13:02:00,37.0,32.0,30.24,NE,35,6.0,10.0,83,0.00,,,0.01,,2013-01-02 18:02:00,
2013-01-02 13:12:00,37.0,32.0,30.24,NE,35,6.0,10.0,83,0.00,,,0.01,,2013-01-02 18:12:00,
2013-01-02 13:22:00,36.0,31.0,30.23,NNE,26,7.0,11.0,82,0.00,,,0.01,,2013-01-02 18:22:00,
2013-01-02 13:33:00,36.0,31.0,30.21,NE,34,6.0,11.0,82,0.00,,,0.01,,2013-01-02 18:33:00,
2013-01-02 13:42:00,36.0,31.0,30.21,NE,34,6.0,11.0,82,0.00,,,0.01,,2013-01-02 18:42:00,
2013-01-02 13:53:00,36.0,31.0,30.23,NNE,14,5.0,8.0,83,0.00,,,0.01,,2013-01-02 18:53:00,
2013-01-02 14:03:00,36.0,31.0,30.23,NNW,344,5.0,9.0,82,0.00,,,0.01,,2013-01-02 19:03:00,
2013-01-02 14:12:00,36.0,31.0,30.23,NNW,344,5.0,9.0,82,0.00,,,0.01,,2013-01-02 19:12:00,
2013-01-02 14:23:00,36.0,30.0,30.22,NNW,341,3.0,6.0,80,0.00,,,0.01,,2013-01-02 19:23:00,
2013-01-02 14:33:00,36.0,31.0,30.22,NW,321,4.0,7.0,82,0.00,,,0.01,,2013-01-02 19:33:00,
2013-01-02 14:43:00,36.0,31.0,30.22,NW,321,4.0,7.0,82,0.00,,,0.01,,2013-01-02 19:43:00,
2013-01-02 14:52:00,37.0,32.0,30.21,NNW,336,5.0,8.0,82,0.00,,,0.00,,2013-01-02 19:52:00,
2013-01-02 15:03:00,37.0,31.0,30.21,NNW,338,5.0,8.0,80,0.00,,,0.00,,2013-01-02 20:03:00,
2013-01-02 15:12:00,37.0,31.0,30.21,NNW,338,5.0,8.0,80,0.00,,,0.00,,2013-01-02 20:12:00,
2013-01-02 15:23:00,37.0,31.0,30.20,North,360,6.0,8.0,80,0.00,,,0.00,,2013-01-02 20:23:00,
2013-01-02 15:33:00,37.0,32.0,30.21,NW,325,7.0,9.0,81,0.00,,,0.00,,2013-01-02 20:33:00,
2013-01-02 15:42:00,37.0,32.0,30.21,NW,325,7.0,9.0,81,0.00,,,0.00,,2013-01-02 20:42:00,
2013-01-02 15:53:00,37.0,31.0,30.22,NW,325,7.0,9.0,79,0.00,,,0.00,,2013-01-02 20:53:00,
2013-01-02 16:03:00,37.0,30.0,30.22,NNW,344,5.0,8.0,77,0.00,,,0.00,,2013-01-02 21:03:00,
2013-01-02 16:13:00,37.0,30.0,30.22,NNW,344,5.0,8.0,77,0.00,,,0.00,,2013-01-02 21:13:00,
2013-01-02 16:22:00,37.0,31.0,30.22,NNW,340,6.0,9.0,78,0.00,,,0.00,,2013-01-02 21:22:00,
2013-01-02 16:32:00,37.0,30.0,30.23,NNW,344,8.0,10.0,76,0.00,,,0.00,,2013-01-02 21:32:00,
2013-01-02 16:42:00,37.0,30.0,30.23,NNW,344,8.0,10.0,76,0.00,,,0.00,,2013-01-02 21:42:00,
2013-01-02 16:53:00,37.0,30.0,30.24,NNW,336,5.0,9.0,77,0.00,,,0.00,,2013-01-02 21:53:00,
2013-01-02 17:03:00,37.0,30.0,30.24,NNW,345,8.0,10.0,75,0.00,,,0.00,,2013-01-02 22:03:00,
2013-01-02 17:12:00,37.0,30.0,30.24,NNW,345,8.0,10.0,75,0.00,,,0.00,,2013-01-02 22:12:00,
2013-01-02 17:22:00,37.0,30.0,30.23,North,360,6.0,9.0,76,0.00,,,0.00,,2013-01-02 22:22:00,
2013-01-02 17:32:00,37.0,30.0,30.24,North,355,6.0,10.0,76,0.00,,,0.00,,2013-01-02 22:32:00,
2013-01-02 17:42:00,37.0,30.0,30.24,North,355,6.0,10.0,76,0.00,,,0.00,,2013-01-02 22:42:00,
2013-01-02 17:53:00,37.0,30.0,30.25,North,355,4.0,8.0,77,0.00,,,0.00,,2013-01-02 22:53:00,
2013-01-02 18:03:00,37.0,30.0,30.25,NNE,17,5.0,8.0,76,0.00,,,0.00,,2013-01-02 23:03:00,
2013-01-02 18:12:00,37.0,30.0,30.25,NNE,17,5.0,8.0,76,0.00,,,0.00,,2013-01-02 23:12:00,
2013-01-02 18:23:00,37.0,31.0,30.25,North,360,4.0,8.0,78,0.00,,,0.00,,2013-01-02 23:23:00,
2013-01-02 18:33:00,37.0,31.0,30.24,North,5,4.0,8.0,78,0.00,,,0.00,,2013-01-02 23:33:00,
2013-01-02 18:42:00,37.0,31.0,30.24,North,5,4.0,8.0,78,0.00,,,0.00,,2013-01-02 23:42:00,
2013-01-02 18:53:00,37.0,31.0,30.24,NNE,19,3.0,7.0,79,0.00,,,0.00,,2013-01-02 23:53:00,
2013-01-02 19:02:00,37.0,31.0,30.24,NNE,14,2.0,5.0,79,0.00,,,0.00,,2013-01-03 00:02:00,
2013-01-02 19:12:00,37.0,31.0,30.24,NNE,14,2.0,5.0,79,0.00,,,0.00,,2013-01-03 00:12:00,
2013-01-02 19:22:00,37.0,31.0,30.25,North,360,4.0,6.0,80,0.00,,,0.00,,2013-01-03 00:22:00,
2013-01-02 19:38:00,37.0,31.0,30.25,North,5,3.0,6.0,80,0.00,,,0.00,,2013-01-03 00:38:00,
2013-01-02 19:53:00,37.0,31.0,30.25,NNE,19,3.0,6.0,79,0.00,,,0.00,,2013-01-03 00:53:00,
2013-01-02 20:02:00,36.0,30.0,30.26,North,350,4.0,6.0,80,0.00,,,0.00,,2013-01-03 01:02:00,
2013-01-02 20:12:00,36.0,30.0,30.26,North,350,4.0,6.0,80,0.00,,,0.00,,2013-01-03 01:12:00,
2013-01-02 20:22:00,36.0,30.0,30.26,North,9,3.0,5.0,80,0.00,,,0.00,,2013-01-03 01:22:00,
2013-01-02 20:32:00,36.0,31.0,30.26,NNW,344,3.0,5.0,81,0.00,,,0.00,,2013-01-03 01:32:00,
2013-01-02 20:42:00,36.0,31.0,30.26,NNW,344,3.0,5.0,81,0.00,,,0.00,,2013-01-03 01:42:00,
2013-01-02 20:53:00,36.0,30.0,30.27,North,360,3.0,5.0,80,0.00,,,0.00,,2013-01-03 01:53:00,
2013-01-02 21:02:00,36.0,30.0,30.27,North,360,3.0,5.0,80,0.00,,,0.00,,2013-01-03 02:02:00,
2013-01-02 21:12:00,36.0,30.0,30.27,North,360,3.0,5.0,80,0.00,,,0.00,,2013-01-03 02:12:00,
2013-01-02 21:22:00,36.0,31.0,30.27,North,9,2.0,6.0,81,0.00,,,0.00,,2013-01-03 02:22:00,
2013-01-02 21:33:00,36.0,31.0,30.27,North,360,3.0,5.0,82,0.00,,,0.00,,2013-01-03 02:33:00,
2013-01-02 21:43:00,36.0,31.0,30.27,North,360,3.0,5.0,82,0.00,,,0.00,,2013-01-03 02:43:00,
2013-01-02 21:52:00,36.0,31.0,30.27,North,360,3.0,5.0,82,0.00,,,0.00,,2013-01-03 02:52:00,
2013-01-02 22:02:00,36.0,31.0,30.26,NNE,21,3.0,5.0,83,0.00,,,0.00,,2013-01-03 03:02:00,
2013-01-02 22:12:00,36.0,32.0,30.27,North,355,3.0,5.0,84,0.00,,,0.00,,2013-01-03 03:12:00,
2013-01-02 22:22:00,36.0,32.0,30.27,North,355,3.0,5.0,84,0.00,,,0.00,,2013-01-03 03:22:00,
2013-01-02 22:46:00,36.0,32.0,30.27,North,11,3.0,5.0,85,0.00,,,0.00,,2013-01-03 03:46:00,
2013-01-02 22:53:00,36.0,32.0,30.27,North,360,3.0,5.0,84,0.00,,,0.00,,2013-01-03 03:53:00,
2013-01-02 23:02:00,36.0,32.0,30.28,North,355,3.0,5.0,85,0.00,,,0.00,,2013-01-03 04:02:00,
2013-01-02 23:12:00,36.0,32.0,30.28,North,355,3.0,5.0,85,0.00,,,0.00,,2013-01-03 04:12:00,
2013-01-02 23:22:00,36.0,32.0,30.28,North,360,3.0,5.0,86,0.00,,,0.00,,2013-01-03 04:22:00,
2013-01-02 23:32:00,36.0,32.0,30.28,North,360,4.0,6.0,86,0.00,,,0.00,,2013-01-03 04:32:00,
2013-01-02 23:42:00,36.0,32.0,30.28,North,360,4.0,6.0,86,0.00,,,0.00,,2013-01-03 04:42:00,
2013-01-02 23:52:00,36.0,32.0,30.27,NNE,16,3.0,7.0,86,0.00,,,0.00,,2013-01-03 04:52:00,